Regional Weather Roundup
Issued by NWS Northern Indiana

Home | Current Version | Previous Version | Text Only | Print | Product List | Glossary Off
Versions: 1 2 3 4 5 6 7 8 9 10 11 12 13 14 15 16 17 18 19 20 21 22 23 24 25 26 27 28 29 30 31 32 33 34 35 36 37 38 39 40 41 42 43 44 45 46 47 48 49 50

000
ASUS43 KIWX 291110
RWRIWX

KIWX WEATHER ROUNDUP
NATIONAL WEATHER SERVICE NORTHERN INDIANA
700 AM EDT WED MAR 29 2017

NOTE: "FAIR" INDICATES FEW OR NO CLOUDS BELOW 12,000 FEET WITH NO
SIGNIFICANT WEATHER AND/OR OBSTRUCTIONS TO VISIBILITY.

* THESE STATIONS ARE NOT UNDER NWS QUALITY CONTROL. THEY ALSO MAY NOT
  REPORT WEATHER SUCH AS PRECIPITATION OR FOG.

INZ001>027-291200-
NORTHERN INDIANA

CITY           SKY/WX    TMP DP  RH WIND       PRES   REMARKS
GARY*          FOG       36  36 100 NE6       30.23S VSB 1/2
VALPARAISO     CLEAR     36  35  96 NE6       30.22R FOG
MICHIGAN CITY*   N/A     30  30 100 CALM      30.23S FOG
LAPORTE*       CLEAR     36  35  96 NE5       30.21F FOG
KNOX*          CLEAR     34  30  86 NE6       30.21S WCI  29
SOUTH BEND     CLEAR     34  33  96 E3        30.23R
ELKHART*       CLEAR     36  32  87 E6        30.23
GOSHEN         CLEAR     36  31  82 E8        30.22R
MONTICELLO*    PTCLDY    43  39  85 E6        30.18S
LOGANSPORT*    CLEAR     41  37  87 E8        30.19F
ROCHESTER*     CLEAR     39  37  93 E3        30.20S
WARSAW*        CLEAR     34  32  93 E8        30.22S WCI  27
ANGOLA*        CLEAR     32  32 100 E5        30.23R WCI  27
FORT WAYNE     PTCLDY    36  32  85 E7        30.23R
HUNTINGTON*    PTCLDY    37  36  96 E6        30.22R
PERU/GRISSOM   CLEAR     41  41  99 E8        30.18R
MARION*        CLEAR     40  37  91 E8        30.20S

$$
INZ028>050-291200-
CENTRAL INDIANA

CITY           SKY/WX    TMP DP  RH WIND       PRES   REMARKS
LAFAYETTE      CLOUDY    45  42  89 E13       30.17S
KOKOMO*        CLEAR     41  39  93 E8        30.20R
MUNCIE*        CLEAR     43  39  86 E8        30.19R
INDIANAPOLIS   DRIZZLE   48  43  82 E15       30.15R

$$
MIZ043>046-050>051-056>058-064>065-071>073-077>080-291200-
SOUTHWEST LOWER MICHIGAN

CITY           SKY/WX    TMP DP  RH WIND       PRES   REMARKS
BATTLE CREEK   CLEAR     30  29  96 CALM      30.26R
BENTON HARBOR  CLEAR     28  26  92 CALM      30.24S
COLDWATER*     CLEAR     31  31 100 NE3       30.24R
HILLSDALE*     CLEAR     30  30 100 NE3       30.23R
HOLLAND        CLEAR     30  28  92 E3        30.26R
GRAND RAPIDS   PTCLDY    32  32 100 CALM      30.26R
KALAMAZOO      CLEAR     31  28  89 N3        30.25R
STURGIS*       CLEAR     32  31  96 NE6       30.22S WCI  26
THREE RIVERS*  FAIR      32  32 100 NE3       30.25R

$$
OHZ001>008-015>018-024>025-291200-
NORTHWEST OHIO

CITY           SKY/WX    TMP DP  RH WIND       PRES   REMARKS
WAUSEON*       FAIR      34  32  93 NE6       30.24R WCI  29
DEFIANCE       CLEAR     33  32  96 NE7       30.24R WCI  27
FINDLAY        PTCLDY    37  31  78 NE6       30.22R
TOLEDO EXPRESS CLEAR     33  31  92 NE5       30.24R WCI  29
TOLEDO METCALF CLEAR     36  33  89 NE5       30.25R
LIMA           CLOUDY    39  35  86 E13       30.21R

$$
AND FOR LAKE MICHIGAN COASTAL AND OPEN LAKE BUOY OBSERVATIONS

STATION/POSITION TEMP    WIND        PRES    VSBY  WAVE
                 AIR SEA DIR/SP/G                  HT/PER
                 (F)     (DEG/KT/KT) (MB)    (MI)  (FT/S)
CALUMET HARBOR    34      20/  8/ 10 1023.1R
MICHIGAN CITY     37      50/  5/  6   N/A
BURNS HARBOR      36      70/  8/ 11 1024.0R
SAINT JOSEPH      34      40/  2/  3 1023.7

$$
&&




USA.gov is the U.S. government's official web portal to all federal, state and local government web resources and services.